Sigfox identifier Datetime Temperature Humidity SNR
0038B571 2018-10-09 09:24:22 21 40 21
0038B571 2018-10-08 21:08:12 20.9 37 21.4
0038B571 2018-10-08 20:01:19 20.8 37 21.4
0038B571 2018-10-08 13:19:56 20.5 36 21.5
0038B571 2018-10-08 12:13:02 20.5 34 21.6
0038B571 2018-10-08 11:06:07 20.3 34 21.4
0038B571 2018-10-08 09:59:12 20.3 35 21.5
0038B571 2018-10-08 08:52:19 20.3 35 21.5
0038B571 2018-10-08 07:45:25 20.4 36 21.6
0038B571 2018-10-08 06:38:31 20.5 36 21.6
0038B571 2018-10-08 05:31:40 20.5 36 21.5
0038B571 2018-10-08 04:24:48 20.5 36 21.4
0038B571 2018-10-08 03:17:53 20.5 37 19.9
0038B571 2018-10-08 02:10:58 20.5 37 20.1
0038B571 2018-10-08 01:04:04 20.5 37 20.2
0038B571 2018-10-07 23:57:08 20.6 37 20
0038B571 2018-10-07 22:50:12 20.5 38 20.1
0038B571 2018-10-07 21:43:19 20.7 38 20.1
0038B571 2018-10-07 20:36:32 20.7 38 20.1
0038B571 2018-10-07 19:29:44 20.7 38 19.7
0038B571 2018-10-07 18:22:53 20.7 38 19.8
0038B571 2018-10-07 17:16:07 20.7 38 19.4
0038B571 2018-10-07 16:09:19 20.7 38 19.6
0038B571 2018-10-07 15:02:30 20.7 38 19.5
0038B571 2018-10-07 13:55:42 20.7 38 19.5
0038B571 2018-10-07 12:48:52 20.7 38 19.3
0038B571 2018-10-07 11:42:03 20.7 38 18.8
0038B571 2018-10-07 10:35:09 20.7 39 18.9
0038B571 2018-10-07 09:28:14 20.7 39 18.8
0038B571 2018-10-07 08:21:19 20.7 39 18.7
0038B571 2018-10-07 07:14:22 20.7 39 18.7
0038B571 2018-10-07 06:07:29 20.7 39 18.8
0038B571 2018-10-07 05:00:34 20.8 39 18.9
0038B571 2018-10-07 03:53:37 20.9 39 18.7
0038B571 2018-10-07 02:46:46 20.9 39 18.5
0038B571 2018-10-07 01:39:50 21 39 18.5
0038B571 2018-10-07 00:32:55 21 39 18.8
0038B571 2018-10-06 23:26:01 21 39 18.8
0038B571 2018-10-06 22:19:05 21 39 19.1
0038B571 2018-10-06 21:12:09 21 39 19.2
0038B571 2018-10-06 20:05:14 21 39 19.3
0038B571 2018-10-06 18:58:22 21 39 19.3
0038B571 2018-10-06 17:51:31 21 40 19
0038B571 2018-10-06 16:44:36 21 40 19
0038B571 2018-10-06 15:37:42 21 40 18.8
0038B571 2018-10-06 14:30:48 21 40 18.8
0038B571 2018-10-06 13:23:58 21 40 18.8
0038B571 2018-10-06 12:17:00 21 40 18.5
0038B571 2018-10-06 11:10:05 21 40 18.5
0038B571 2018-10-06 10:03:11 21 40 18.6
0038B571 2018-10-06 08:56:20 21.1 40 18.4
0038B571 2018-10-06 07:49:27 21.1 41 18.3
0038B571 2018-10-06 06:42:38 21.2 41 18.6
0038B571 2018-10-06 05:35:47 21.2 41 19
0038B571 2018-10-06 04:28:54 21.2 41 19
0038B571 2018-10-06 03:21:58 21.3 41 19.2
0038B571 2018-10-06 02:15:03 21.4 42 19
0038B571 2018-10-06 01:08:10 21.4 42 19.2
0038B571 2018-10-06 00:01:19 21.4 42 19.2
0038B571 2018-10-05 22:54:19 21.5 42 19.1
0038B571 2018-10-05 21:47:24 21.6 43 19.1
0038B571 2018-10-05 20:40:26 21.6 43 18.9
0038B571 2018-10-05 19:33:32 21.6 43 18.9
0038B571 2018-10-05 18:26:34 21.6 44 18.2
0038B571 2018-10-05 17:19:36 21.6 45 17.9
0038B571 2018-10-05 16:12:43 21.5 46 17.2
0038B571 2018-10-05 15:05:49 21.4 46 17.3
0038B571 2018-10-05 13:58:54 21.2 45 17.6
0038B571 2018-10-05 12:52:00 21 44 17.6
0038B571 2018-10-05 11:45:04 21 41 18
0038B571 2018-10-05 10:38:07 20.7 37 18
0038B571 2018-10-05 09:31:10 20.6 35 18
0038B571 2018-10-05 08:24:17 20.5 33 18
0038B571 2018-10-05 07:17:19 20.5 30 18
0038B571 2018-10-05 06:10:23 20.5 29 18.4
0038B571 2018-10-05 05:03:25 20.5 28 18.7
0038B571 2018-10-05 03:56:29 20.6 28 19
0038B571 2018-10-05 02:49:33 20.7 28 18.7
0038B571 2018-10-05 01:42:34 20.7 29 18.4
0038B571 2018-10-05 00:35:35 20.7 29 18.6
0038B571 2018-10-04 23:28:38 20.9 30 18.5
0038B571 2018-10-04 22:21:43 21 29 18.5
0038B571 2018-10-04 21:14:49 21 29 20.1
0038B571 2018-10-04 20:07:54 21 28 20.2
0038B571 2018-10-04 19:00:59 21 28 20.1
0038B571 2018-10-04 17:54:03 21.2 27 20.8
0038B571 2018-10-04 16:47:12 21.8 29 20.8
0038B571 2018-10-04 15:40:14 21.1 28 20.8
0038B571 2018-10-04 13:26:24 20.7 29 20.9
0038B571 2018-10-04 12:19:28 20.7 30 20.9
0038B571 2018-10-04 11:12:37 20.5 31 20.9
0038B571 2018-10-04 10:05:46 20.5 32 20.9
0038B571 2018-10-04 08:58:55 20.3 33 20.7
0038B571 2018-10-04 07:52:05 20.3 34 20.7
0038B571 2018-10-04 06:45:15 20.5 36 20.5
0038B571 2018-10-04 05:38:26 20.5 36 20.5
0038B571 2018-10-04 04:31:36 20.5 37 20.6
0038B571 2018-10-04 03:24:43 20.5 37 20.7
0038B571 2018-10-04 02:17:50 20.6 38 20.6
0038B571 2018-10-04 01:10:59 20.7 38 20.4
0038B571 2018-10-04 00:04:05 20.7 39 20.2
0038B571 2018-10-03 22:57:14 20.7 39 21.4
0038B571 2018-10-03 21:50:21 20.7 39 21.5
0038B571 2018-10-03 20:43:24 20.8 40 21.5
0038B571 2018-10-03 19:36:28 20.8 40 21.4
0038B571 2018-10-03 18:29:36 20.7 40 21.2
0038B571 2018-10-03 17:22:40 20.8 42 21.4
0038B571 2018-10-03 16:15:46 20.9 43 20.1
0038B571 2018-10-03 15:08:51 20.8 43 20.2
0038B571 2018-10-03 12:55:10 20.7 41 20.4
0038B571 2018-10-03 11:48:20 20.7 41 19.7
0038B571 2018-10-03 10:41:31 20.6 40 19.8
0038B571 2018-10-03 09:34:42 20.5 40 20
0038B571 2018-10-03 08:27:57 20.4 38 20.1
0038B571 2018-10-03 07:21:10 20.5 39 20.2
0038B571 2018-10-03 06:14:18 20.5 39 20.4
0038B571 2018-10-03 05:07:28 20.5 40 20.6
0038B571 2018-10-03 04:00:32 20.5 40 20.9
0038B571 2018-10-03 02:53:37 20.6 40 21.2
0038B571 2018-10-03 01:46:42 20.7 40 21.4
0038B571 2018-10-03 00:39:45 20.7 40 21.6
0038B571 2018-10-02 23:32:49 20.7 40 21.7
0038B571 2018-10-02 22:25:52 20.7 39 21.9
0038B571 2018-10-02 21:18:54 20.8 39 22.5
0038B571 2018-10-02 20:11:54 20.9 39 22.9
0038B571 2018-10-02 19:04:54 21 39 23.6
0038B571 2018-10-02 17:57:55 21 39 15.8
0038B571 2018-10-02 16:50:57 21.1 40 9.6
0038B571 2018-10-02 15:43:56 21.2 39 10.1
0038B571 2018-10-02 14:36:57 21 39 10.9
0038B571 2018-10-02 13:29:57 20.7 48 0